www.pogodaiklimat.ru

Погода и климат >> Архив погоды >> Индия >> Махараштра >> Харнай


ПОГОДА в Харнае

  • Прогноз погоды в Харнае
  • Монитор погоды в Харнае

АРХИВ ПОГОДЫ в Харнае

Время (UTC), дата Ветер
(напр.,м/с)
 
Видим.   Явления Облачность Т
(С)
Тd
(С)
f
(%)
Тe
(С)
Тes
(С)
Комфортность P
(гПа)
Po
(гПа)
Тmin
(С)
Tmax
(С)
R
(мм)
R24
(мм)
S
(см)
03 10.06 ЮВ 1 4000 м мгла {дождь} 10/3 600 м
[Sc diur, vesp As trans]
+29.2 0.0 15 +27 +29 жарко 1006.1 1003.8 +25.5 7
06 10.06 ЮВ 1 10 км 8/3 600 м
[Sc diur, vesp Ac und]
+32.4 0.0 13 +29 +38 жарко 1006.0 1003.8
09 10.06 ЮЗ 1 10 км 4/4 600 м
[Sc diur, vesp]
+32.4 -20.1 3 +28 +40 жарко 1003.8 1001.6
12 10.06 ЮЗ 2 10 км 4/4 600 м
[Sc diur, vesp]
+32.0 -20.1 3 +27 +29 жарко 1003.1 1000.9 +33.4
03 11.06 Ю 2 10 км 9/5 600 м
[Sc Ac As]
+30.4 -20.1 3 +26 +27 жарко 1003.5 1001.2 +28.0
06 11.06 ЮЗ 3 10 км 8/4 600 м
[Sc diur, vesp Ac As]
+32.4 -20.1 3 +28 +33 жарко 1003.0 1000.8
09 11.06 Ю 3 10 км 9/5 600 м
[Sc diur, vesp Ac As]
+32.0 -20.1 3 +27 +30 жарко 1000.9 998.7
12 11.06 Ю 8 10 км 6/4 600 м
[Sc diur, vesp Ac As]
+31.2 -0.1 13 +28 +28 жарко 999.0 996.8 +33.8
03 12.06 ЮВ 6 4000 м слаб. дождь {морось} 10/3 600 м
[Frnb Ac As]
+26.6 -0.2 17 +25 +25 комфорт 1003.0 1000.7 +25.5 12
06 12.06 Ю 11 4000 м слаб. морось {дождь} 10/5 600 м
[Frnb Ac As]
+28.8 -0.1 15 +26 +26 жарко 1003.4 1001.1 3
09 12.06 Ю 7 4000 м слаб. морось 10/6 600 м
[Frnb Ac As]
+27.4 -0.1 17 +25 +26 комфорт 1003.7 1001.4 7
12 12.06 В 35 4000 м слаб. морось 10/5 600 м
[Frnb Ac As]
+27.0 -0.1 17 +25 +25 комфорт 1002.7 1000.4 +30.8 14
03 13.06 Ю 7 4000 м мгла {дождь} 9/5 600 м
[Cu Sc Ac As]
+29.6 +27.7 90 +48 +49 опасность
перегрева
1005.3 1003.0 +23.9 71
06 13.06 Ю 6 4000 м мгла {туман} 9/4 600 м
[Frnb Ac cuf]
+30.6 -20.1 3 +26 +28 жарко 1005.9 1003.6
12 13.06 Ю 3 4000 м мгла {туман} 8/5 600 м
[Frnb Ac As]
+30.2 -20.1 3 +26 +26 жарко 1003.6 1001.3 +31.6 1
03 14.06 Ю 4 4000 м мгла {дождь} 8/4 600 м
[St Ac As]
+29.8 -0.1 14 +27 +28 жарко 1006.7 1004.4 +27.2 7
06 14.06 ЮЗ 5 4000 м мгла {туман} 4/3 600 м
[St Ac As]
+31.0 -20.1 3 +26 +33 жарко 1006.6 1004.3
09 14.06 ЮЗ 6 4000 м мгла {туман} 4/4 600 м
[Sc diur, vesp]
+30.6 -20.1 3 +26 +31 жарко 1004.8 1002.5
12 14.06 ЮЗ 5 4000 м мгла {туман} 8/5 600 м
[Cu Sc Ac As]
+30.4 -20.1 3 +26 +26 жарко 1004.2 1001.9 +32.2
03 15.06 ЮЗ 5 4000 м мгла {дождь} 9/5 600 м
[Frnb Ac As]
+29.6 -0.1 15 +27 +28 жарко 1007.7 1005.4 +25.5 36
06 15.06 ЮЗ 6 4000 м мгла {туман} 5/3 600 м
[St Ac As]
+30.8 -0.1 14 +28 +32 жарко 1008.4 1006.1
09 15.06 ЮВ 5 4000 м мгла {туман} 5/3 600 м
[St Ac As]
+30.8 -20.1 3 +26 +32 жарко 1007.0 1004.7
12 15.06 ЮВ 3 10 км 6/4 600 м
[Frnb Ac As]
+30.8 -0.1 14 +28 +29 жарко 1006.6 1004.3 +32.1
03 16.06 Ю 2 4000 м мгла {дождь} 9/5 600 м
[St Ac As]
+29.8 -20.1 3 +25 +27 комфорт 1009.5 1007.2 +28.1 1
06 16.06 0 мгла {туман} н/о -0.1 1010.0
09 16.06 ЮЗ 5 4000 м мгла {туман} 6/4 600 м
[Sc Ac As]
+31.6 -20.1 3 +27 +31 жарко 1008.6 1006.3
12 16.06 ЮЗ 4 4000 м мгла {туман} 5/3 600 м
[St Ac As]
+30.6 -20.1 3 +26 +27 жарко 1007.7 1005.4 +32.2

 

Местоположение метеостанции Харнай (Махараштра, Индия): широта 17.82 долгота 73.10 высота над уровнем моря 20 м.

В архиве по умолчанию представлена погода в Харнае за последнюю неделю. Архивные данные за месяц целиком и за предыдущие месяцы, начиная с января 2011 года, Вы можете получить, выбрав интересующий диапазон дат из раскрывающегося списка и нажав кнопку "Ввод!".


*Определитесь, кто Вы:
робот инопланетянин человек

Внимание! Время в таблицах - всемирное. Для получения местного времени необходимо прибавить поправку, которая равна 5.5 ч.

Смотрите также архив погоды в соседних городах и на ближайших метеорологических станциях:

Погода в Махабалешваре (Махараштра, Индия) (62 км)
Погода в Байре (Махараштра, Индия) (77 км)
Погода в Алибаге (Махараштра, Индия) (93 км)
Погода в Ратнагири (Махараштра, Индия) (97 км)
Погода в Сатаре (Махараштра, Индия) (106 км)
Погода в Пуне (Махараштра, Индия) (112 км)
Погода в Мумбай Колаба (Махараштра, Индия) (124 км)
Погода в Матеране (Махараштра, Индия) (130 км)
Погода в Мумбаи (Махараштра, Индия) (147 км)
Погода в Колхапуре (Махараштра, Индия) (173 км)

Пояснения к столбцам:

Ветер - указаны скорость ветра в м/с - средняя за 10 мин, порывы в срок и между сроками (в фигурных скобках) и направление, откуда дует ветер: С - северный, СВ - северо-восточный, В - восточный, ЮВ - юго-восточный, Ю - южный, ЮЗ - юго-западный, З - западный, СЗ - северо-западный.
Видимость - горизонтальная дальность видимости в метрах или километрах. При видимости от 1 до 10 км при отсутствии осадков обычно наблюдается дымка, при ухудшении видимости до 1 км и менее - туман. В сухую погоду видимость может ухудшаться дымом, пылью или мглою.
Явления - указаны атмосферные явления, наблюдавшиеся в срок или в последний час перед сроком; фигурными скобками обозначены явления, наблюдавшиеся между сроками (за 1-3 часа до срока); квадратными скобками обозначены град или гололедные отложения с указанием их диаметра в мм.
Облачность - указаны через наклонную черту общая и нижняя облачность в баллах и высота нижней границы облаков в метрах; квадратными скобками обозначены формы облаков: Ci - перистые, Cs - перисто-слоистые, Cc - перисто-кучевые, Ac - высококучевые, As - высокослоистые, Sc - слоисто-кучевые, Ns - слоисто-дождевые, Cu - кучевые, Cb - кучево-дождевые. Подробнее классификацию облаков см. в Атласе облаков (PDF).
T - Температура воздуха - температура, измеренная на высоте 2 м над землей.
Td - Температура точки росы - температура, при понижении до которой содержащийся в воздухе водяной пар достигнет насыщения.
f - Относительная влажность воздуха - влажноcть воздуха, измеренная на высоте 2 м над землей.
Te - Эффективная температура - температура, которую ощущает одетый по сезону человек в тени. Характеристика душности погоды. При расчете учитывается влияние влажности воздуха и скорости ветра на теплоощущения человека.
Tes - Эффективная температура на солнце - температура, которую ощущает человек, с поправкой на солнечный нагрев. Характеристика знойности погоды. Зависит от высоты солнца над горизонтом, облачности и скорости ветра. Ночью, в пасмурную погоду, а также при ветре 12 м/с и более поправка равна нулю.
P - Атмосферное давление - приведенное к уровню моря атмосферное давление.
Po - Атмосферное давление - измеренное на уровне метеостанции атмосферное давление.
Tmin - Минимальная температура - минимум температуры воздуха на высоте 2 м над землей.
Tmax - Максимальная температура - максимум температуры воздуха на высоте 2 м над землей.
R - Количество осадков - Количество выпавших осадков за период времени, мм. При наведении курсора мыши на число - период времени, за который выпало указанное количество осадков.
R24 - Количество осадков - Количество выпавших осадков за 24 часа, мм.
S - Снежный покров - Высота снежного покрова, см. При наведении курсора мыши на число - состояние снежного покрова и степень покрытия местности в баллах.